Stillwater, OK

2:11 AM CDT on August 27, 2016 (GMT -0500)
Stillwater Municipal

Weather History for KSWO - October, 2013

Change the Weather History Date:

Monday, October 7, 2013

  Actual Average Record
Temperature  
Mean Temperature 57 °F -  
Max Temperature 78 °F 73 °F 96 °F (2014)
Min Temperature 39 °F 50 °F 33 °F (2000)
Degree Days  
Heating Degree Days 8    
Growing Degree Days 7 (Base 50)    
Moisture  
Dew Point 40 °F    
Average Humidity 62    
Maximum Humidity 93    
Minimum Humidity 22    
Precipitation  
Precipitation 0.00 in - - ()
Sea Level Pressure  
Sea Level Pressure 30.12 in    
Wind  
Wind Speed 2 mph (WNW)    
Max Wind Speed 7 mph    
Max Gust Speed -    
Visibility 10 miles    
Events      
Averages and records for this station are not official NWS values.
T = Trace of Precipitation, MM = Missing Value Source: NWS Daily Summary

Daily Weather History Graph

Daily Weather History Graph

Search for Another Location

Airport or City:

Trip Planner

Search our weather history database for the weather conditions in past years. The results will help you decide how hot, cold, wet, or windy it might be!

Date:

Astronomy

Oct. 07, 2013 Rise Set
Actual Time 7:28 AM CDT 7:02 PM CDT
Civil Twilight 7:02 AM CDT 7:28 PM CDT
Nautical Twilight 6:33 AM CDT 7:58 PM CDT
Astronomical Twilight 6:03 AM CDT 8:28 PM CDT
Moon 10:14 AM CDT (10/7) 8:54 PM CDT (10/7)
Length of Visible Light 12h 25m
Length of Day
11h 34m
Waxing Crescent, 9% of the Moon is Illuminated
Oct 7
Waxing Crescent
Oct 11
First Quarter
Oct 18
Full
Oct 26
Last Quarter
Nov 3
New

Hourly Weather History & Observations

Time (CDT) Temp. Windchill Dew Point Humidity Pressure Visibility Wind Dir Wind Speed Gust Speed Precip Events Conditions
12:53 AM 44.1 °F - 41.0 °F 89% 30.07 in 10.0 mi Calm Calm - N/A   Clear
1:53 AM 43.0 °F 38.8 °F 39.9 °F 89% 30.08 in 10.0 mi WNW 6.9 mph - N/A   Clear
2:53 AM 44.1 °F 41.5 °F 39.9 °F 85% 30.09 in 10.0 mi NW 4.6 mph - N/A   Clear
3:53 AM 43.0 °F 40.3 °F 39.9 °F 89% 30.09 in 10.0 mi WNW 4.6 mph - N/A   Clear
4:53 AM 41.0 °F - 39.0 °F 93% 30.11 in 10.0 mi Calm Calm - N/A   Clear
5:53 AM 42.1 °F - 39.0 °F 89% 30.12 in 10.0 mi Calm Calm - N/A   Clear
6:53 AM 39.9 °F 37.8 °F 37.9 °F 93% 30.14 in 10.0 mi West 3.5 mph - N/A   Clear
7:53 AM 39.9 °F - 37.9 °F 93% 30.16 in 10.0 mi Calm Calm - N/A   Clear
8:53 AM 51.1 °F - 46.0 °F 83% 30.17 in 10.0 mi Calm Calm - N/A   Clear
9:53 AM 60.1 °F - 42.1 °F 51% 30.19 in 10.0 mi NNE 3.5 mph - N/A   Clear
10:53 AM 66.0 °F - 35.1 °F 32% 30.19 in 10.0 mi Calm Calm - N/A   Clear
11:53 AM 71.1 °F - 35.1 °F 27% 30.18 in 10.0 mi Variable 3.5 mph - N/A   Clear
12:53 PM 73.9 °F - 34.0 °F 23% 30.17 in 10.0 mi Calm Calm - N/A   Clear
1:53 PM 75.9 °F - 34.0 °F 22% 30.14 in 10.0 mi Variable 3.5 mph - N/A   Clear
2:53 PM 75.9 °F - 34.0 °F 22% 30.12 in 10.0 mi Variable 3.5 mph - N/A   Clear
3:53 PM 75.9 °F - 35.1 °F 23% 30.10 in 10.0 mi Calm Calm - N/A   Clear
4:53 PM 75.9 °F - 37.0 °F 24% 30.09 in 10.0 mi Variable 4.6 mph - N/A   Clear
5:53 PM 73.9 °F - 39.0 °F 28% 30.08 in 10.0 mi SE 4.6 mph - N/A   Clear
6:53 PM 66.0 °F - 42.1 °F 42% 30.09 in 10.0 mi SE 4.6 mph - N/A   Clear
7:53 PM 61.0 °F - 44.1 °F 54% 30.10 in 10.0 mi SE 4.6 mph - N/A   Clear
8:53 PM 54.0 °F - 46.0 °F 75% 30.11 in 10.0 mi Calm Calm - N/A   Clear
9:53 PM 50.0 °F - 46.0 °F 86% 30.11 in 10.0 mi Calm Calm - N/A   Clear
10:53 PM 48.0 °F - 45.0 °F 89% 30.10 in 10.0 mi Calm Calm - N/A   Clear
11:53 PM 51.1 °F - 45.0 °F 80% 30.09 in 10.0 mi Calm Calm - N/A   Clear